Satellite: AAUSAT2
Catalog number: 32788
Epoch time:      12263.67376070
Element set:    0407
Inclination:      097.7948 deg
RA of node:       323.3276 deg
Eccentricity:    0.0015819
Arg of perigee:   109.4936 deg
Mean anomaly:     250.7983 deg
Mean motion:   14.84687954 rev/day
Decay rate:      1.686e-05 rev/day^2
Epoch rev:           23785
Checksum:              361

Satellite: DO-64
Catalog number: 32789
Epoch time:      12264.76367937
Element set:     422
Inclination:      097.8042 deg
RA of node:       326.7945 deg
Eccentricity:    0.0015607
Arg of perigee:   103.2497 deg
Mean anomaly:     257.0453 deg
Mean motion:   14.86419870 rev/day
Decay rate:      2.720e-05 rev/day^2
Epoch rev:           23807
Checksum:              335

Satellite: CO-66
Catalog number: 32791
Epoch time:      12263.82155529
Element set:    0405
Inclination:      097.7887 deg
RA of node:       322.6950 deg
Eccentricity:    0.0017077
Arg of perigee:   110.5884 deg
Mean anomaly:     249.7091 deg
Mean motion:   14.83694205 rev/day
Decay rate:      1.069e-05 rev/day^2
Epoch rev:           23777
Checksum:              341

Satellite: RS-30
Catalog number: 32953
Epoch time:      12264.90973255
Element set:     158
Inclination:      082.5001 deg
RA of node:       235.6047 deg
Eccentricity:    0.0020276
Arg of perigee:   097.0623 deg
Mean anomaly:     263.2760 deg
Mean motion:   12.43027804 rev/day
Decay rate:        1.0e-07 rev/day^2
Epoch rev:           19645
Checksum:              275

Satellite: PHARMSAT
Catalog number: 35002
Epoch time:      12226.86484473
Element set:      78
Inclination:      040.4341 deg
RA of node:       050.6671 deg
Eccentricity:    0.0012079
Arg of perigee:   300.9773 deg
Mean anomaly:     059.0492 deg
Mean motion:   16.39309245 rev/day
Decay rate:   7.728342e-02 rev/day^2
Epoch rev:           18355
Checksum:              302

Satellite: METEOR-M
Catalog number: 35865
Epoch time:      12264.78187189
Element set:     795
Inclination:      098.6444 deg
RA of node:       317.2645 deg
Eccentricity:    0.0002957
Arg of perigee:   121.0654 deg
Mean anomaly:     239.0812 deg
Mean motion:   14.21869220 rev/day
Decay rate:       -1.9e-07 rev/day^2
Epoch rev:           15618
Checksum:              320

Satellite: RS-38
Catalog number: 35869
Epoch time:      12264.71829117
Element set:     782
Inclination:      098.6396 deg
RA of node:       317.1813 deg
Eccentricity:    0.0005069
Arg of perigee:   126.5897 deg
Mean anomaly:     233.5747 deg
Mean motion:   14.22087424 rev/day
Decay rate:        3.0e-07 rev/day^2
Epoch rev:           15619
Checksum:              334

Satellite: JUGNU
Catalog number: 37839
Epoch time:      12263.08463629
Element set:    0230
Inclination:      019.9591 deg
RA of node:       149.3875 deg
Eccentricity:    0.0019439
Arg of perigee:   176.4778 deg
Mean anomaly:     183.5649 deg
Mean motion:   14.12082165 rev/day
Decay rate:       6.20e-06 rev/day^2
Epoch rev:           04853
Checksum:              327

Satellite: SRMSAT
Catalog number: 37841
Epoch time:      12263.90389899
Element set:    0234
Inclination:      019.9697 deg
RA of node:       151.1619 deg
Eccentricity:    0.0012085
Arg of perigee:   151.9329 deg
Mean anomaly:     208.1728 deg
Mean motion:   14.10162034 rev/day
Decay rate:       2.64e-06 rev/day^2
Epoch rev:           04858
Checksum:              308

Satellite: RAX-2
Catalog number: 37853
Epoch time:      12263.81064625
Element set:    0297
Inclination:      101.7082 deg
RA of node:       347.0971 deg
Eccentricity:    0.0244275
Arg of perigee:   081.0342 deg
Mean anomaly:     281.8420 deg
Mean motion:   14.80791168 rev/day
Decay rate:      4.066e-05 rev/day^2
Epoch rev:           04840
Checksum:              295

Satellite: AUBIESAT
Catalog number: 37854
Epoch time:      12263.80656351
Element set:    0293
Inclination:      101.7129 deg
RA of node:       347.4709 deg
Eccentricity:    0.0245291
Arg of perigee:   080.2923 deg
Mean anomaly:     282.5886 deg
Mean motion:   14.81244898 rev/day
Decay rate:      4.177e-05 rev/day^2
Epoch rev:           04839
Checksum:              330

Satellite: HRBE
Catalog number: 37855
Epoch time:      12264.84388356
Element set:     287
Inclination:      101.7109 deg
RA of node:       348.9029 deg
Eccentricity:    0.0245580
Arg of perigee:   077.4359 deg
Mean anomaly:     285.4194 deg
Mean motion:   14.81070037 rev/day
Decay rate:      4.292e-05 rev/day^2
Epoch rev:            4854
Checksum:              328

Satellite: RS-39
Catalog number: 38051
Epoch time:      12264.75216435
Element set:     719
Inclination:      051.6350 deg
RA of node:       063.9490 deg
Eccentricity:    0.0012697
Arg of perigee:   021.9004 deg
Mean anomaly:     172.4553 deg
Mean motion:   15.25802038 rev/day
Decay rate:      7.605e-05 rev/day^2
Epoch rev:            3655
Checksum:              293

Satellite: E-STAR
Catalog number: 38079
Epoch time:      12264.69805543
Element set:     518
Inclination:      069.4784 deg
RA of node:       096.4579 deg
Eccentricity:    0.0714419
Arg of perigee:   126.8899 deg
Mean anomaly:     239.9906 deg
Mean motion:   14.21079701 rev/day
Decay rate:     4.7145e-04 rev/day^2
Epoch rev:            3112
Checksum:              349

Satellite: GOLIAT
Catalog number: 38085
Epoch time:      12264.68893897
Element set:     486
Inclination:      069.4848 deg
RA of node:       097.0943 deg
Eccentricity:    0.0719741
Arg of perigee:   127.4545 deg
Mean anomaly:     239.4886 deg
Mean motion:   14.19940247 rev/day
Decay rate:     4.4637e-04 rev/day^2
Epoch rev:            3110
Checksum:              360

Satellite: HORYU-2
Catalog number: 38340
Epoch time:      12264.32131936
Element set:     155
Inclination:      098.1820 deg
RA of node:       204.3011 deg
Eccentricity:    0.0013572
Arg of perigee:   033.3053 deg
Mean anomaly:     326.9021 deg
Mean motion:   14.70175830 rev/day
Decay rate:       8.83e-06 rev/day^2
Epoch rev:            1845
Checksum:              254

Satellite: RS-40
Catalog number: 38736
Epoch time:      12264.71441186
Element set:      57
Inclination:      082.4812 deg
RA of node:       323.1480 deg
Eccentricity:    0.0018548
Arg of perigee:   192.1221 deg
Mean anomaly:     167.9424 deg
Mean motion:   12.42646496 rev/day
Decay rate:        1.0e-07 rev/day^2
Epoch rev:             677
Checksum:              289

Satellite: PROITERES
Catalog number: 38756
Epoch time:      12264.76510160
Element set:      47
Inclination:      098.2853 deg
RA of node:       330.4851 deg
Eccentricity:    0.0011542
Arg of perigee:   242.2842 deg
Mean anomaly:     117.7196 deg
Mean motion:   14.73874215 rev/day
Decay rate:       3.02e-06 rev/day^2
Epoch rev:             170
Checksum:              273

Satellite: AENEAS
Catalog number: 38760
Epoch time:      12263.51384741
Element set:    0012
Inclination:      064.6718 deg
RA of node:       023.4550 deg
Eccentricity:    0.0219105
Arg of perigee:   287.6245 deg
Mean anomaly:     175.2963 deg
Mean motion:   14.79106966 rev/day
Decay rate:      1.219e-05 rev/day^2
Epoch rev:           00081
Checksum:              289

Satellite: CSSWE
Catalog number: 38761
Epoch time:      12261.82383910
Element set:    0010
Inclination:      064.6714 deg
RA of node:       028.6390 deg
Eccentricity:    0.0218654
Arg of perigee:   288.2530 deg
Mean anomaly:     172.9518 deg
Mean motion:   14.78858418 rev/day
Decay rate:      1.382e-05 rev/day^2
Epoch rev:           00056
Checksum:              302

Satellite: CP5
Catalog number: 38763
Epoch time:      12258.03722222
Element set:     000
Inclination:       66.2600 deg
RA of node:        30.4300 deg
Eccentricity:    0.0202000
Arg of perigee:   308.7900 deg
Mean anomaly:     155.8234 deg
Mean motion:   14.79897280 rev/day
Decay rate:     0.00000000 rev/day^2
Epoch rev:           00000
Checksum:              216

/EX




More information about the Keps mailing list